Location: Unspecified
(0.0000°N, 0.0000°E)
Time: 21:54:52
(UTC+00:00)

Vanguard 1 Rocket - Pass Details

Date: 15 December 2017
Orbit: 656 x 4222 km, 34.3° (Epoch: 17 January)

Event Time Altitude Azimuth Distance (km) Brightness Sun altitude
Rises 20:25:23 0° 324° (NW) 6,223 11.8 -34.0°
Reaches altitude 10° 20:30:18 10° 336° (NNW) 5,738 11.4 -35.1°
Enters shadow 20:39:58 24° 8° (N) 5,421 10.9 -37.2°
